Change the Weather History Date:

Wednesday, March 6, 2013

  Actual Average (KMHR) Record (KMHR)
Temperature  
Mean Temperature 52 °F -  
Max Temperature 57 °F 61 °F 73 °F (2007)
Min Temperature 46 °F 38 °F 35 °F (2003)
Degree Days  
Heating Degree Days 14    
Growing Degree Days 2 (Base 50)    
Moisture  
Dew Point 39 °F    
Average Humidity 65    
Maximum Humidity 87    
Minimum Humidity 38    
Precipitation  
Precipitation 0.00 in - - ()
Sea Level Pressure  
Sea Level Pressure 30.00 in    
Wind  
Wind Speed 13 mph (South)    
Max Wind Speed 20 mph    
Max Gust Speed 30 mph    
Visibility 9 miles    
Events Rain    
Averages and records for this station are not official NWS values.
T = Trace of Precipitation, MM = Missing Value Source: NWS Daily Summary

Daily Weather History Graph

Daily Weather History Graph

Search for Another Location

Airport or City:

Trip Planner

Search our weather history database for the weather conditions in past years. The results will help you decide how hot, cold, wet, or windy it might be!

Date:

Astronomy

Mar. 06, 2013 Rise Set
Actual Time 6:30 AM PST 6:04 PM PST
Civil Twilight 6:03 AM PST 6:30 PM PST
Nautical Twilight 5:32 AM PST 7:01 PM PST
Astronomical Twilight 5:01 AM PST 7:32 PM PST
Moon 2:41 AM PST (3/6) 12:54 PM PST (3/6)
Length of Visible Light 12h 27m
Length of Day
11h 34m
Waning Crescent, 29% of the Moon is Illuminated
Mar 6
Waning Crescent
Mar 11
New
Mar 19
First Quarter
Mar 27
Full
Apr 2
Last Quarter

Hourly Weather History & Observations

Time (PST) Temp. Dew Point Humidity Pressure Visibility Wind Dir Wind Speed Gust Speed Precip Events Conditions
12:10 AM 48.2 °F 44.6 °F 87% 29.87 in 10.0 mi SE 11.5 mph - N/A Rain Light Rain
12:30 AM 48.2 °F 44.6 °F 87% 29.86 in 10.0 mi SE 17.3 mph 21.9 mph N/A   Overcast
12:50 AM 48.2 °F 44.6 °F 87% 29.88 in 4.0 mi SSE 11.5 mph - N/A Rain Light Rain
1:10 AM 48.2 °F 44.6 °F 87% 29.88 in 5.0 mi SSE 16.1 mph 19.6 mph N/A Rain Light Rain
1:30 AM 48.2 °F 44.6 °F 87% 29.87 in 10.0 mi SSE 16.1 mph - N/A Rain Light Rain
1:50 AM 50.0 °F 42.8 °F 76% 29.87 in 7.0 mi SSE 18.4 mph 27.6 mph N/A   Overcast
2:10 AM 48.2 °F 42.8 °F 82% 29.87 in 2.5 mi SSE 18.4 mph 29.9 mph N/A Rain Light Rain
2:30 AM 48.2 °F 42.8 °F 82% 29.88 in 3.0 mi SSE 13.8 mph 21.9 mph N/A Rain Light Rain
2:50 AM 48.2 °F 42.8 °F 82% 29.88 in 5.0 mi South 15.0 mph 24.2 mph N/A Rain Light Rain
3:10 AM 48.2 °F 44.6 °F 87% 29.88 in 3.0 mi South 12.7 mph - N/A Rain Light Rain
3:30 AM 48.2 °F 44.6 °F 87% 29.90 in 3.0 mi South 15.0 mph 20.7 mph N/A Rain Light Rain
3:50 AM 48.2 °F 42.8 °F 82% 29.89 in 6.0 mi South 18.4 mph 27.6 mph N/A Rain Light Rain
4:10 AM 48.2 °F 44.6 °F 87% 29.90 in 10.0 mi South 17.3 mph - N/A   Scattered Clouds
4:30 AM 48.2 °F 44.6 °F 87% 29.90 in 10.0 mi South 17.3 mph 21.9 mph N/A   Mostly Cloudy
4:50 AM 48.2 °F 44.6 °F 87% 29.90 in 9.0 mi South 18.4 mph 27.6 mph N/A   Mostly Cloudy
5:10 AM 48.2 °F 44.6 °F 87% 29.91 in 10.0 mi South 18.4 mph 24.2 mph N/A   Mostly Cloudy
5:30 AM 48.2 °F 44.6 °F 87% 29.93 in 10.0 mi South 17.3 mph 26.5 mph N/A   Mostly Cloudy
5:50 AM 48.2 °F 44.6 °F 87% 29.93 in 10.0 mi South 16.1 mph 20.7 mph N/A   Scattered Clouds
6:10 AM 48.2 °F 44.6 °F 87% 29.95 in 10.0 mi SSE 12.7 mph - N/A   Partly Cloudy
6:30 AM 48.2 °F 44.6 °F 87% 29.97 in 10.0 mi SSE 10.4 mph - N/A   Scattered Clouds
6:50 AM 48.2 °F 44.6 °F 87% 29.98 in 9.0 mi SSE 9.2 mph 17.3 mph N/A   Scattered Clouds
7:10 AM 48.2 °F 44.6 °F 87% 29.99 in 10.0 mi South 11.5 mph - N/A   Partly Cloudy
7:30 AM 48.2 °F 44.6 °F 87% 30.00 in 9.0 mi South 11.5 mph 17.3 mph N/A   Clear
7:50 AM 50.0 °F 41.0 °F 71% 30.01 in 9.0 mi SSW 15.0 mph 21.9 mph N/A   Clear
8:10 AM 50.0 °F 41.0 °F 71% 30.02 in 9.0 mi South 16.1 mph 20.7 mph N/A   Partly Cloudy
8:30 AM 50.0 °F 41.0 °F 71% 30.03 in 9.0 mi South 16.1 mph 24.2 mph N/A   Scattered Clouds
8:50 AM 51.8 °F 41.0 °F 67% 30.04 in 9.0 mi SSW 16.1 mph 24.2 mph N/A   Mostly Cloudy
9:10 AM 53.6 °F 41.0 °F 62% 30.05 in 8.0 mi South 13.8 mph 26.5 mph N/A   Mostly Cloudy
9:30 AM 53.6 °F 41.0 °F 62% 30.05 in 9.0 mi South 16.1 mph 23.0 mph N/A   Mostly Cloudy
9:50 AM 53.6 °F 39.2 °F 58% 30.06 in 9.0 mi South 12.7 mph 20.7 mph N/A   Scattered Clouds
10:10 AM 51.8 °F 39.2 °F 62% 30.06 in 10.0 mi South 12.7 mph 17.3 mph N/A   Clear
10:50 AM 53.6 °F 41.0 °F 62% 30.08 in 9.0 mi SSW 12.7 mph 18.4 mph N/A   Mostly Cloudy
11:10 AM 55.4 °F 39.2 °F 54% 30.09 in 9.0 mi South 17.3 mph 24.2 mph N/A   Mostly Cloudy
11:30 AM 53.6 °F 37.4 °F 54% 30.08 in 10.0 mi SSW 11.5 mph 20.7 mph N/A   Partly Cloudy
11:50 AM 55.4 °F 39.2 °F 54% 30.08 in 10.0 mi SSW 17.3 mph 20.7 mph N/A   Partly Cloudy
12:10 PM 55.4 °F 37.4 °F 51% 30.08 in 10.0 mi South 16.1 mph 23.0 mph N/A   Scattered Clouds
12:30 PM 57.2 °F 37.4 °F 48% 30.08 in 10.0 mi SSW 11.5 mph 21.9 mph N/A   Scattered Clouds
12:50 PM 57.2 °F 35.6 °F 44% 30.07 in 10.0 mi SSW 19.6 mph 24.2 mph N/A   Scattered Clouds
1:10 PM 57.2 °F 37.4 °F 48% 30.06 in 10.0 mi SSW 12.7 mph 23.0 mph N/A   Partly Cloudy
1:30 PM 57.2 °F 35.6 °F 44% 30.07 in 10.0 mi SSW 13.8 mph 20.7 mph N/A   Scattered Clouds
1:50 PM 57.2 °F 33.8 °F 41% 30.06 in 10.0 mi SSW 15.0 mph 21.9 mph N/A   Scattered Clouds
2:10 PM 57.2 °F 32.0 °F 38% 30.06 in 10.0 mi South 15.0 mph 21.9 mph N/A   Partly Cloudy
2:30 PM 57.2 °F 33.8 °F 41% 30.05 in 10.0 mi SSW 9.2 mph 18.4 mph N/A   Mostly Cloudy
2:50 PM 57.2 °F 35.6 °F 44% 30.05 in 10.0 mi SSW 11.5 mph - N/A   Mostly Cloudy
3:10 PM 57.2 °F 33.8 °F 41% 30.05 in 10.0 mi SW 16.1 mph 19.6 mph N/A   Scattered Clouds
3:30 PM 57.2 °F 32.0 °F 38% 30.05 in 10.0 mi SW 11.5 mph 16.1 mph N/A   Mostly Cloudy
3:50 PM 57.2 °F 32.0 °F 38% 30.05 in 10.0 mi SW 15.0 mph - N/A   Scattered Clouds
4:10 PM 55.4 °F 32.0 °F 41% 30.05 in 10.0 mi SW 13.8 mph - N/A   Scattered Clouds
4:30 PM 55.4 °F 32.0 °F 41% 30.05 in 10.0 mi SSW 12.7 mph - N/A   Partly Cloudy
4:50 PM 55.4 °F 32.0 °F 41% 30.04 in 10.0 mi SSW 11.5 mph - N/A   Clear
5:10 PM 55.4 °F 35.6 °F 47% 30.04 in 10.0 mi SSW 8.1 mph - N/A   Clear
5:30 PM 55.4 °F 33.8 °F 44% 30.04 in 10.0 mi SSW 9.2 mph - N/A   Clear
5:50 PM 53.6 °F 35.6 °F 51% 30.04 in 10.0 mi SW 10.4 mph - N/A   Clear
6:10 PM 53.6 °F 33.8 °F 47% 30.04 in 10.0 mi SW 8.1 mph - N/A   Clear
6:30 PM 50.0 °F 33.8 °F 54% 30.04 in 10.0 mi SW 8.1 mph - N/A   Clear
6:50 PM 50.0 °F 33.8 °F 54% 30.04 in 10.0 mi SSW 6.9 mph - N/A   Clear
7:10 PM 50.0 °F 33.8 °F 54% 30.03 in 10.0 mi Calm Calm - N/A   Clear
7:30 PM 48.2 °F 35.6 °F 62% 30.04 in 10.0 mi South 3.5 mph - N/A   Clear
7:50 PM 48.2 °F 35.6 °F 62% 30.04 in 10.0 mi SSW 3.5 mph - N/A   Clear
8:10 PM 50.0 °F 37.4 °F 62% 30.04 in 10.0 mi SSW 3.5 mph - N/A   Partly Cloudy
8:30 PM 50.0 °F 37.4 °F 62% 30.04 in 10.0 mi Calm Calm - N/A   Mostly Cloudy
8:50 PM 48.2 °F 37.4 °F 66% 30.04 in 10.0 mi Calm Calm - N/A   Overcast
9:10 PM 48.2 °F 37.4 °F 66% 30.04 in 10.0 mi SW 3.5 mph - N/A   Mostly Cloudy
9:30 PM 48.2 °F 37.4 °F 66% 30.04 in 10.0 mi SW 3.5 mph - N/A   Partly Cloudy
9:50 PM 48.2 °F 37.4 °F 66% 30.04 in 10.0 mi Calm Calm - N/A   Scattered Clouds
10:10 PM 48.2 °F 37.4 °F 66% 30.03 in 10.0 mi Calm Calm - N/A   Mostly Cloudy
10:30 PM 48.2 °F 37.4 °F 66% 30.03 in 10.0 mi Calm Calm - N/A   Mostly Cloudy
10:50 PM 46.4 °F 37.4 °F 71% 30.03 in 10.0 mi Calm Calm - N/A   Mostly Cloudy
11:10 PM 48.2 °F 35.6 °F 62% 30.02 in 10.0 mi Calm Calm - N/A   Overcast
11:30 PM 48.2 °F 37.4 °F 66% 30.02 in 10.0 mi Calm Calm - N/A   Overcast
11:50 PM 48.2 °F 37.4 °F 66% 30.03 in 10.0 mi Calm Calm - N/A   Overcast